Date,TemperatureHighF,TemperatureAvgF,TemperatureLowF,DewpointHighF,DewpointAvgF,DewpointLowF,HumidityHigh,HumidityAvg,HumidityLow,PressureMaxIn,PressureMinIn,WindSpeedMaxMPH,WindSpeedAvgMPH,GustSpeedMaxMPH,PrecipitationSumIn
2013-1-1,48.2,45.2,42.3,47.8,38.6,27.2,99,79,52,29.90,29.71,15,5,15,0.09
2013-1-2,48.4,43.3,37.9,46.1,37.5,30.1,99,81,60,29.99,29.70,13,3,13,0.01
2013-1-3,42.1,37.7,33.1,33.0,28.7,23.2,82,70,59,30.06,29.92,5,2,5,0.00
2013-1-4,50.9,37.1,28.6,23.2,18.9,15.2,67,49,26,30.15,30.02,17,5,17,0.00
2013-1-5,52.9,39.3,28.4,26.8,20.5,16.1,61,48,25,30.22,29.97,9,3,9,0.00
2013-1-6,55.9,44.1,37.8,36.9,32.6,26.2,82,65,46,29.99,29.86,8,2,8,0.01
2013-1-7,54.0,40.8,31.1,30.5,26.4,21.9,71,57,38,30.26,29.98,13,2,13,0.00
2013-1-8,54.5,42.2,27.9,39.0,32.4,21.6,83,69,54,30.22,30.13,8,2,8,0.00
2013-1-9,46.2,44.9,41.5,38.1,37.4,35.8,81,75,72,30.17,30.13,4,2,4,0.00
2013-1-10,60.8,53.2,44.2,48.8,39.1,30.7,87,61,33,30.30,30.18,8,1,8,0.00
2013-1-11,47.3,42.9,40.3,44.0,40.8,35.5,99,92,73,30.17,29.94,10,2,10,0.06
2013-1-12,66.2,54.3,44.8,61.4,52.8,44.0,99,95,81,29.95,29.88,7,2,7,0.02
2013-1-13,72.7,63.5,57.7,61.3,58.2,56.0,97,84,62,29.93,29.85,21,6,21,0.01
2013-1-14,63.5,60.7,54.0,61.5,58.6,53.1,98,93,82,29.95,29.85,22,3,22,0.22
2013-1-15,54.0,42.9,39.7,53.1,42.4,39.5,99,98,95,30.00,29.88,14,5,15,0.30
2013-1-16,48.4,43.1,38.3,47.8,42.7,38.0,99,98,97,29.88,29.72,14,2,14,0.34
2013-1-17,48.6,42.0,32.4,48.3,41.3,31.1,99,97,93,29.97,29.72,32,7,32,1.48
2013-1-18,49.3,35.4,29.7,31.4,26.8,21.6,96,73,41,30.31,29.97,5,0,5,0.18
2013-1-19,52.5,41.0,28.9,31.1,24.6,21.1,73,54,36,30.29,30.07,12,4,13,0.00
2013-1-20,61.3,49.1,42.3,28.8,25.3,20.0,56,40,22,30.07,29.84,17,3,17,0.00
2013-1-21,58.3,43.5,30.0,33.0,22.5,7.1,76,47,21,29.90,29.70,24,6,24,0.00
2013-1-22,37.6,30.2,23.4,9.6,-3.8,-10.1,33,23,18,30.08,29.79,17,6,17,0.00
2013-1-23,43.9,29.8,18.9,14.9,5.5,-8.3,49,36,24,30.14,29.82,19,4,19,0.00
2013-1-24,35.6,30.7,23.0,22.1,5.9,-8.0,61,37,20,30.32,29.74,20,6,20,0.00
2013-1-25,23.0,20.6,19.6,4.1,0.7,-3.3,48,41,33,30.29,30.19,5,1,11,0.00